Joliet, IL

1:47 AM CDT on June 28, 2017 (GMT -0500)
Joliet Regional

Weather History for KJOT - August, 2013

Change the Weather History Date:

Friday, August 23, 2013

  Actual Average (KARR) Record (KARR)
Temperature  
Mean Temperature 70 °F -  
Max Temperature 83 °F 79 °F 90 °F (2012)
Min Temperature 58 °F 58 °F 50 °F (2009)
Cooling Degree Days 5    
Growing Degree Days 20 (Base 50)    
Moisture  
Dew Point 54 °F    
Average Humidity 63    
Maximum Humidity 99    
Minimum Humidity 27    
Precipitation  
Precipitation 0.01 in - - ()
Sea Level Pressure  
Sea Level Pressure 30.15 in    
Wind  
Wind Speed 3 mph (ENE)    
Max Wind Speed 12 mph    
Max Gust Speed 17 mph    
Visibility 7 miles    
Events Fog    
Averages and records for this station are not official NWS values.
T = Trace of Precipitation, MM = Missing Value Source: NWS Daily Summary

Daily Weather History Graph

Daily Weather History Graph

Search for Another Location

Airport or City:

Trip Planner

Search our weather history database for the weather conditions in past years. The results will help you decide how hot, cold, wet, or windy it might be!

Date:

Astronomy

Aug. 23, 2013 Rise Set
Actual Time 6:09 AM CDT 7:39 PM CDT
Civil Twilight 5:40 AM CDT 8:08 PM CDT
Nautical Twilight 5:05 AM CDT 8:43 PM CDT
Astronomical Twilight 4:28 AM CDT 9:20 PM CDT
Moon 8:55 PM CDT (8/23) 9:07 AM CDT (8/23)
Length of Visible Light 14h 28m
Length of Day
13h 29m
Waning Gibbous, 91% of the Moon is Illuminated
Aug 23
Waning Gibbous
Aug 28
Last Quarter
Sep 5
New
Sep 12
First Quarter
Sep 19
Full

Hourly Weather History & Observations

Time (CDT) Temp. Heat Index Dew Point Humidity Pressure Visibility Wind Dir Wind Speed Gust Speed Precip Events Conditions
12:15 AM 61.3 °F - 60.8 °F 98% 30.13 in 0.2 mi Calm Calm - N/A Fog Fog
12:35 AM 61.9 °F - 61.2 °F 97% 30.13 in 0.2 mi Calm Calm - N/A Fog Fog
12:55 AM 61.2 °F - 60.4 °F 97% 30.12 in 0.8 mi Calm Calm - N/A   Mist
1:55 AM 63.0 °F - 62.4 °F 98% 30.12 in 0.2 mi Calm Calm - N/A Fog Fog
2:15 AM 63.1 °F - 62.6 °F 98% 30.12 in 0.2 mi Calm Calm - N/A Fog Fog
2:35 AM 62.4 °F - 61.9 °F 98% 30.11 in 0.2 mi Calm Calm - N/A Fog Fog
2:55 AM 61.7 °F - 61.0 °F 97% 30.12 in 0.2 mi Calm Calm - N/A Fog Fog
3:15 AM 61.5 °F - 60.8 °F 97% 30.12 in 0.2 mi Calm Calm - N/A Fog Fog
3:35 AM 60.1 °F - 59.4 °F 97% 30.12 in 0.5 mi Calm Calm - N/A Fog Fog
3:55 AM 62.6 °F - 61.9 °F 97% 30.11 in 2.0 mi Calm Calm - N/A   Clear
4:55 AM 60.1 °F - 59.5 °F 98% 30.12 in 0.5 mi Calm Calm - N/A Fog Fog
5:15 AM 59.5 °F - 58.8 °F 97% 30.13 in 0.5 mi Calm Calm - N/A Fog Fog
5:35 AM 60.3 °F - 59.7 °F 98% 30.14 in 1.2 mi Calm Calm - N/A   Mist
5:55 AM 59.7 °F - 59.2 °F 98% 30.14 in 1.8 mi Calm Calm - 0.01 in   Mist
6:15 AM 58.3 °F - 57.7 °F 98% 30.15 in 0.5 mi Calm Calm - N/A Fog Fog
6:35 AM 58.5 °F - 58.1 °F 99% 30.15 in 0.2 mi Calm Calm - N/A Fog Fog
6:55 AM 59.7 °F - 59.2 °F 98% 30.16 in 0.5 mi Calm Calm - N/A Fog Fog
7:15 AM 61.3 °F - 60.8 °F 98% 30.16 in 2.0 mi Calm Calm - N/A   Mostly Cloudy
7:35 AM 62.8 °F - 62.1 °F 97% 30.17 in 3.0 mi Calm Calm - N/A   Overcast
7:55 AM 64.0 °F - 63.5 °F 98% 30.17 in 4.0 mi Calm Calm - N/A   Scattered Clouds
8:15 AM 65.3 °F - 64.4 °F 97% 30.17 in 7.0 mi Calm Calm - N/A   Clear
8:35 AM 66.2 °F - 65.1 °F 96% 30.17 in 7.0 mi Calm Calm - N/A   Clear
8:55 AM 68.2 °F - 66.2 °F 93% 30.17 in 7.0 mi Calm Calm - N/A   Clear
9:15 AM 69.8 °F - 66.7 °F 90% 30.17 in 10.0 mi ENE 4.6 mph - N/A   Clear
9:35 AM 73.6 °F - 64.8 °F 74% 30.18 in 10.0 mi NE 3.5 mph - N/A   Clear
9:55 AM 74.5 °F - 63.3 °F 68% 30.18 in 10.0 mi ENE 5.8 mph - N/A   Clear
10:15 AM 76.3 °F - 61.2 °F 59% 30.18 in 10.0 mi East 10.4 mph - N/A   Clear
10:35 AM 76.5 °F - 61.9 °F 61% 30.18 in 10.0 mi NNE 4.6 mph - N/A   Clear
11:15 AM 79.0 °F - 56.3 °F 46% 30.18 in 10.0 mi NE 8.1 mph - N/A   Clear
11:35 AM 79.7 °F - 54.1 °F 41% 30.18 in 10.0 mi ENE 10.4 mph - N/A   Clear
11:55 AM 80.4 °F 80.3 °F 54.7 °F 41% 30.18 in 10.0 mi East 8.1 mph - N/A   Clear
12:15 PM 80.8 °F - 50.7 °F 35% 30.18 in 10.0 mi East 9.2 mph 16.1 mph N/A   Clear
12:35 PM 81.9 °F - 52.7 °F 36% 30.17 in 10.0 mi ENE 10.4 mph - N/A   Clear
12:55 PM 81.7 °F - 51.4 °F 35% 30.17 in 10.0 mi East 8.1 mph 17.3 mph N/A   Clear
1:15 PM 81.3 °F - 48.4 °F 32% 30.16 in 10.0 mi ENE 8.1 mph - N/A   Clear
1:35 PM 81.5 °F - 47.5 °F 30% 30.16 in 10.0 mi East 9.2 mph - N/A   Clear
1:55 PM 82.2 °F - 46.8 °F 29% 30.16 in 10.0 mi ENE 11.5 mph 16.1 mph N/A   Clear
2:15 PM 82.6 °F - 46.9 °F 29% 30.15 in 10.0 mi East 9.2 mph - N/A   Clear
2:35 PM 82.4 °F - 46.8 °F 29% 30.15 in 10.0 mi East 11.5 mph - N/A   Clear
2:55 PM 82.6 °F - 45.7 °F 27% 30.15 in 10.0 mi NE 9.2 mph - N/A   Clear
3:15 PM 82.4 °F - 45.3 °F 27% 30.15 in 10.0 mi NNE 5.8 mph - N/A   Clear
3:35 PM 82.2 °F - 45.7 °F 28% 30.15 in 10.0 mi ENE 8.1 mph - N/A   Clear
3:55 PM 82.6 °F - 45.5 °F 27% 30.14 in 10.0 mi NE 8.1 mph - N/A   Clear
4:15 PM 82.0 °F - 45.0 °F 27% 30.14 in 10.0 mi ENE 8.1 mph - N/A   Clear
4:35 PM 82.4 °F - 45.1 °F 27% 30.14 in 10.0 mi NE 9.2 mph - N/A   Clear
4:55 PM 81.7 °F - 45.1 °F 28% 30.14 in 10.0 mi NE 9.2 mph - N/A   Clear
5:15 PM 81.0 °F - 44.6 °F 28% 30.14 in 10.0 mi NE 9.2 mph - N/A   Clear
6:15 PM 79.2 °F - 43.2 °F 28% 30.14 in 10.0 mi NE 9.2 mph - N/A   Clear
6:35 PM 77.9 °F - 41.7 °F 27% 30.14 in 10.0 mi ENE 4.6 mph - N/A   Clear
6:55 PM 76.1 °F - 43.7 °F 31% 30.14 in 10.0 mi ENE 9.2 mph - N/A   Clear
7:15 PM 74.3 °F - 45.7 °F 36% 30.15 in 10.0 mi ENE 6.9 mph - N/A   Clear
7:35 PM 72.5 °F - 47.8 °F 42% 30.15 in 10.0 mi East 8.1 mph - N/A   Clear
7:55 PM 70.2 °F - 49.1 °F 47% 30.15 in 10.0 mi East 5.8 mph - N/A   Clear
8:15 PM 69.3 °F - 49.5 °F 49% 30.16 in 10.0 mi ENE 6.9 mph - N/A   Clear
8:35 PM 68.5 °F - 49.8 °F 51% 30.17 in 10.0 mi ENE 5.8 mph - N/A   Clear
8:55 PM 68.2 °F - 49.8 °F 52% 30.18 in 10.0 mi ENE 5.8 mph - N/A   Clear
9:15 PM 67.1 °F - 50.5 °F 55% 30.18 in 10.0 mi ENE 5.8 mph - N/A   Clear
9:35 PM 66.4 °F - 51.1 °F 58% 30.18 in 10.0 mi ENE 5.8 mph - N/A   Clear
9:55 PM 66.6 °F - 51.4 °F 58% 30.18 in 10.0 mi NE 4.6 mph - N/A   Clear
10:15 PM 66.4 °F - 51.6 °F 59% 30.18 in 10.0 mi NE 3.5 mph - N/A   Clear
10:35 PM 66.0 °F - 52.2 °F 61% 30.18 in 10.0 mi Calm Calm - N/A   Clear
11:35 PM 63.5 °F - 54.5 °F 72% 30.19 in 10.0 mi Calm Calm - N/A   Clear
11:55 PM 62.8 °F - 55.0 °F 76% 30.19 in 10.0 mi North 3.5 mph - N/A   Clear